Observations for Trim Market St
| Time | AQI | Temp °C | Hum % | Pres Pa | CO μg/m³ | H₂S μg/m³ | NO μg/m³ | NO₂ μg/m³ | O₃ μg/m³ | SO₂ μg/m³ | PM1 μg/m³ | PM2.5 μg/m³ | PM10 μg/m³ |
|---|---|---|---|---|---|---|---|---|---|---|---|---|---|
| Wednesday 26 August 2026 | |||||||||||||
| 16:58 | 2 | 30.1 | 42 | 65,858 | 0 | 0 | 1.46 | 28.08 | 100.16 | 0 | 4.28 | 8.04 | 10.69 |
| 16:57 | 2 | 30.1 | 42 | 65,872 | 0 | 0 | 1.47 | 21.78 | 119.81 | 0 | 4.28 | 8.06 | 9.91 |
| 16:56 | 2 | 30.2 | 42 | 65,858 | 0 | 0 | 1.51 | 24.4 | 104.35 | 0 | 3.56 | 6.49 | 9.11 |
| 16:55 | 2 | 30.3 | 42 | 65,868 | 0 | 0 | 1.5 | 24.9 | 107.23 | 0 | 3.56 | 7.54 | 9.91 |
| 16:54 | 2 | 30.4 | 42 | 65,853 | 0 | 0 | 1.51 | 25.31 | 106.1 | 0 | 3.56 | 6.49 | 7.53 |
| 16:53 | 2 | 30.5 | 42 | 65,858 | 0 | 0 | 1.43 | 22.73 | 94.71 | 0 | 3.56 | 7.01 | 9.11 |
| 16:52 | 2 | 30.6 | 42 | 65,866 | 0 | 0 | 1.34 | 24.23 | 123.89 | 0 | 3.56 | 5.96 | 6.73 |
| 16:51 | 2 | 30.6 | 42 | 65,872 | 0 | 0 | 1.26 | 24.41 | 128.97 | 0 | 2.85 | 5.44 | 6.73 |
| 16:50 | 2 | 30.6 | 42 | 65,853 | 0 | 0 | 1.24 | 23.37 | 129.66 | 0 | 4.28 | 7.55 | 9.12 |
| 16:49 | 2 | 30.6 | 42 | 65,855 | 0 | 0 | 1.25 | 24.59 | 109.97 | 0 | 2.85 | 5.45 | 6.73 |
| 16:47 | 2 | 30.5 | 42 | 65,829 | 0 | 0 | 1.31 | 23.39 | 134.14 | 0 | 3.56 | 6.49 | 7.53 |
| 16:46 | 2 | 30.5 | 42 | 65,855 | 0 | 0 | 1.33 | 21.65 | 145.61 | 0 | 4.28 | 5.96 | 6.73 |
| 16:43 | 2 | 30.4 | 42 | 65,833 | 0 | 0 | 1.21 | 21.13 | 136.08 | 0 | 2.14 | 5.96 | 6.73 |
| 16:38 | 2 | 30.5 | 41 | 65,857 | 0 | 0 | 1.33 | 15.89 | 102.54 | 0 | 3.56 | 7.05 | 8.32 |
| 16:31 | 2 | 31 | 40 | 65,951 | 0 | 0 | 1.41 | 23.41 | 99.27 | 0 | 3.56 | 6.57 | 9.13 |
| 16:30 | 2 | 31.1 | 40 | 65,989 | 0 | 0 | 1.39 | 24.11 | 100.59 | 0 | 3.56 | 7.11 | 8.33 |
| 16:29 | 2 | 31.2 | 40 | 66,011 | 0 | 0 | 1.39 | 22.07 | 97.96 | 0 | 3.56 | 6.59 | 10.75 |
| 16:26 | 2 | 31.7 | 39 | 66,019 | 0 | 0 | 1.4 | 16.31 | 100.21 | 0 | 2.85 | 7.16 | 9.15 |
| 16:25 | 2 | 31.8 | 39 | 66,041 | 0 | 0 | 1.47 | 17.41 | 90.09 | 0 | 3.56 | 7.15 | 8.34 |
| 16:24 | 2 | 32 | 39 | 66,009 | 0 | 0 | 1.46 | 17.06 | 78.69 | 0 | 2.85 | 6.1 | 7.53 |